Location: Unspecified
(0.0000°N, 0.0000°E)
Time: 00:10:43
(UTC+00:00)

Orbcomm F1 (FM01) - Pass Details

Date: 19 May 2026
Orbit: 578 x 582 km, 70.0° (Epoch: 10 June)

Event Time Altitude Azimuth Distance (km) Brightness Sun altitude
Exits shadow 04:16:02 - 163° (SSE) 2,141 9.8 -23.5°
Reaches altitude 10° 04:16:48 10° 157° (SSE) 1,897 9.6 -23.4°
Maximum altitude 04:20:02 21° 107° (ESE) 1,319 9.3 -22.6°
Drops below altitude 10° 04:23:16 10° 57° (ENE) 1,892 10.6 -21.9°
Sets 04:25:54 0° 41° (NE) 2,788 11.5 -21.3°
